Location: Betz
(49.1556°N, 2.9558°E)
Time: 11:24:46
(UTC+00:00)

Meteor 1-12 Rocket - Pass Details

Date: 18 September 2019
Orbit: 854 x 927 km, 81.2° (Epoch: 13 October)

Event Time Altitude Azimuth Distance (km) Brightness Sun altitude
Rises 18:59:40 0° 191° (S) 3,465 7.3 -11.1°
Reaches altitude 10° 19:02:07 10° 191° (SSW) 2,520 6.6 -11.5°
Maximum altitude 19:07:51 87° 279° (W) 874 4.3 -12.4°
Drops below altitude 10° 19:13:33 10° 11° (NNE) 2,504 6.8 -13.3°
Sets 19:15:58 0° 12° (NNE) 3,441 7.5 -13.7°
